START_TIME,STEP,MOV.,M34,t_acc.,L5,t_acc.,L18,t_acc.,L14,t_acc.
1979-08-06 03:00:23.300 ,1,0,0.,12.0,0.,12.0,0.,12.0,0.,12.0
1979-08-06 03:00:35.300 ,1,0,0.,12.0,0.,12.0,0.,12.0,0.,12.0
1979-08-06 03:00:47.300 ,2,1,0.,12.0,0.,12.0,0.,12.0,0.,12.0
1979-08-06 03:00:59.300 ,2,1,0.,12.0,0.,12.0,0.,12.0,0.,12.0
1979-08-06 03:01:11.290 ,2,0,0.,12.0,0.,12.0,0.,12.0,0.,12.0
1979-08-06 03:01:23.300 ,2,0,0.,12.0,0.,12.0,0.,12.0,0.,12.0
1979-08-06 03:01:35.290 ,3,1,0.,12.0,0.,12.0,0.,12.0,0.,12.0
1979-08-06 03:01:47.300 ,3,1,0.,12.0,0.,12.0,0.,12.0,0.,12.0
1979-08-06 03:01:59.300 ,3,0,1.,12.0,0.,12.0,0.,12.0,0.,12.0
1979-08-06 03:02:11.300 ,3,0,0.,12.0,0.,12.0,0.,12.0,0.,12.0
1979-08-06 03:02:23.290 ,4,1,0.,12.0,0.,12.0,0.,12.0,0.,12.0
1979-08-06 03:02:35.290 ,4,1,0.,12.0,0.,12.0,0.,12.0,0.,12.0
1979-08-06 03:02:47.290 ,4,0,0.,12.0,0.,12.0,0.,12.0,0.,12.0
1979-08-06 03:02:59.290 ,4,0,0.,12.0,0.,12.0,0.,12.0,0.,12.0
1979-08-06 03:03:11.290 ,5,1,0.,12.0,0.,12.0,0.,12.0,0.,12.0
1979-08-06 03:03:23.290 ,5,1,0.,12.0,0.,12.0,0.,12.0,0.,12.0
1979-08-06 03:03:35.290 ,5,0,0.,12.0,0.,12.0,0.,12.0,0.,12.0
1979-08-06 03:03:47.290 ,5,0,0.,12.0,0.,12.0,0.,12.0,0.,12.0
1979-08-06 03:03:59.290 ,6,1,0.,12.0,0.,12.0,0.,12.0,0.,12.0
1979-08-06 03:04:11.290 ,6,1,0.,12.0,0.,12.0,0.,12.0,0.,12.0
1979-08-06 03:04:23.290 ,6,0,0.,12.0,0.,12.0,0.,12.0,0.,12.0
1979-08-06 03:04:35.290 ,6,0,0.,12.0,0.,12.0,0.,12.0,0.,12.0
1979-08-06 03:04:47.290 ,7,1,0.,12.0,0.,12.0,0.,12.0,0.,12.0
1979-08-06 03:04:59.290 ,7,1,0.,12.0,0.,12.0,0.,12.0,0.,12.0
1979-08-06 03:05:11.290 ,7,0,0.,12.0,0.,12.0,0.,12.0,0.,12.0
1979-08-06 03:05:23.290 ,7,0,0.,12.0,0.,12.0,0.,12.0,0.,12.0
1979-08-06 03:05:35.290 ,7,1,0.,12.0,0.,12.0,0.,12.0,0.,12.0
1979-08-06 03:05:47.290 ,7,1,0.,12.0,0.,12.0,0.,12.0,0.,12.0
1979-08-06 03:05:59.290 ,7,0,0.,12.0,0.,12.0,0.,12.0,0.,12.0
1979-08-06 03:06:11.290 ,7,0,0.,12.0,0.,12.0,0.,12.0,0.,12.0
1979-08-06 03:06:23.290 ,6,1,0.,12.0,0.,12.0,0.,12.0,0.,12.0
1979-08-06 03:06:35.290 ,6,1,0.,12.0,0.,12.0,0.,12.0,0.,12.0
1979-08-06 03:06:47.290 ,6,0,0.,12.0,0.,12.0,0.,12.0,0.,12.0
1979-08-06 03:06:59.290 ,6,0,0.,12.0,0.,12.0,0.,12.0,0.,12.0
1979-08-06 03:07:11.290 ,0,0,0.,12.0,0.,12.0,0.,12.0,0.,12.0
1979-08-06 03:07:23.290 ,0,0,0.,12.0,0.,12.0,0.,12.0,0.,12.0
1979-08-06 03:07:35.290 ,0,0,0.,12.0,0.,12.0,0.,12.0,0.,12.0
1979-08-06 03:07:47.290 ,0,0,0.,12.0,0.,12.0,0.,12.0,0.,12.0
1979-08-06 03:07:59.290 ,4,1,0.,12.0,0.,12.0,0.,12.0,0.,12.0
1979-08-06 03:08:11.290 ,4,1,0.,12.0,0.,12.0,0.,12.0,0.,12.0
1979-08-06 03:08:23.290 ,4,0,0.,12.0,0.,12.0,0.,12.0,0.,12.0
1979-08-06 03:08:35.290 ,4,0,0.,12.0,0.,12.0,0.,12.0,0.,12.0
1979-08-06 03:08:47.290 ,3,1,0.,12.0,0.,12.0,0.,12.0,0.,12.0
1979-08-06 03:08:59.290 ,3,1,0.,12.0,0.,12.0,0.,12.0,0.,12.0
1979-08-06 03:09:11.290 ,3,0,0.,12.0,0.,12.0,0.,12.0,0.,12.0
1979-08-06 03:09:23.290 ,3,0,0.,12.0,0.,12.0,0.,12.0,0.,12.0
1979-08-06 03:09:35.290 ,2,1,0.,12.0,0.,12.0,0.,12.0,0.,12.0
1979-08-06 03:09:47.290 ,2,1,0.,12.0,0.,12.0,0.,12.0,0.,12.0
1979-08-06 03:09:59.290 ,2,0,0.,12.0,0.,12.0,0.,12.0,0.,12.0
1979-08-06 03:10:11.290 ,2,0,0.,12.0,0.,12.0,0.,12.0,0.,12.0
1979-08-06 03:10:23.290 ,1,1,0.,12.0,0.,12.0,0.,12.0,0.,12.0
1979-08-06 03:10:35.290 ,1,1,0.,12.0,0.,12.0,0.,12.0,0.,12.0
1979-08-06 03:10:47.290 ,1,0,0.,12.0,0.,12.0,0.,12.0,0.,12.0
1979-08-06 03:10:59.290 ,1,0,0.,12.0,0.,12.0,0.,12.0,0.,12.0
1979-08-06 03:11:11.290 ,0,1,0.,12.0,0.,12.0,0.,12.0,0.,12.0
1979-08-06 03:11:23.290 ,0,1,0.,12.0,0.,12.0,0.,12.0,0.,12.0
1979-08-06 03:11:35.290 ,0,0,0.,12.0,0.,12.0,0.,12.0,0.,12.0
1979-08-06 03:11:47.290 ,0,0,,0,,0,,0,,0
1979-08-06 03:11:59.290 ,0,0,0.,12.0,0.,12.0,0.,12.0,0.,12.0
1979-08-06 03:12:11.290 ,0,0,0.,12.0,0.,12.0,0.,12.0,0.,12.0
1979-08-06 03:12:23.290 ,0,0,0.,12.0,0.,12.0,0.,12.0,0.,12.0
1979-08-06 03:12:35.290 ,0,0,0.,12.0,0.,12.0,0.,12.0,0.,12.0
1979-08-06 03:12:47.290 ,1,1,0.,12.0,0.,12.0,0.,12.0,0.,12.0
1979-08-06 03:12:59.290 ,1,1,0.,12.0,0.,12.0,0.,12.0,0.,12.0
1979-08-06 03:13:11.290 ,1,0,0.,12.0,0.,12.0,0.,12.0,0.,12.0
1979-08-06 03:13:23.290 ,1,0,0.,12.0,0.,12.0,0.,12.0,0.,12.0
1979-08-06 03:13:35.290 ,2,1,0.,12.0,0.,12.0,0.,12.0,0.,12.0
1979-08-06 03:13:47.290 ,2,1,0.,12.0,0.,12.0,0.,12.0,0.,12.0
1979-08-06 03:13:59.290 ,2,0,0.,12.0,0.,12.0,0.,12.0,0.,12.0
1979-08-06 03:14:11.290 ,2,0,0.,12.0,0.,12.0,0.,12.0,0.,12.0
1979-08-06 03:14:23.290 ,3,1,0.,12.0,0.,12.0,0.,12.0,0.,12.0
1979-08-06 03:14:35.290 ,3,1,0.,12.0,0.,12.0,0.,12.0,1.,12.0
1979-08-06 03:14:47.290 ,3,0,0.,12.0,0.,12.0,0.,12.0,0.,12.0
1979-08-06 03:14:59.290 ,3,0,0.,12.0,0.,12.0,0.,12.0,0.,12.0
1979-08-06 03:15:11.290 ,4,1,0.,12.0,0.,12.0,0.,12.0,0.,12.0
1979-08-06 03:15:23.290 ,4,1,0.,12.0,0.,12.0,0.,12.0,0.,12.0
1979-08-06 03:15:35.290 ,4,0,0.,12.0,0.,12.0,0.,12.0,0.,12.0
1979-08-06 03:15:47.290 ,4,0,0.,12.0,0.,12.0,0.,12.0,0.,12.0
1979-08-06 03:15:59.290 ,5,1,0.,12.0,0.,12.0,0.,12.0,0.,12.0
1979-08-06 03:16:11.290 ,5,1,0.,12.0,0.,12.0,0.,12.0,0.,12.0
1979-08-06 03:16:23.290 ,5,0,0.,12.0,0.,12.0,0.,12.0,0.,12.0
1979-08-06 03:16:35.290 ,5,0,0.,12.0,0.,12.0,0.,12.0,0.,12.0
1979-08-06 03:16:47.290 ,6,1,0.,12.0,0.,12.0,0.,12.0,0.,12.0
1979-08-06 03:16:59.290 ,6,1,0.,12.0,0.,12.0,0.,12.0,0.,12.0
1979-08-06 03:17:11.290 ,6,0,0.,12.0,0.,12.0,0.,12.0,0.,12.0
1979-08-06 03:17:23.290 ,6,0,0.,12.0,0.,12.0,0.,12.0,0.,12.0
1979-08-06 03:17:35.290 ,7,1,0.,12.0,0.,12.0,0.,12.0,0.,12.0
1979-08-06 03:17:47.290 ,7,1,0.,12.0,0.,12.0,0.,12.0,0.,12.0
1979-08-06 03:17:59.290 ,7,0,0.,12.0,0.,12.0,0.,12.0,0.,12.0
1979-08-06 03:18:11.290 ,7,0,0.,12.0,0.,12.0,0.,12.0,0.,12.0
1979-08-06 03:18:23.290 ,7,1,0.,12.0,0.,12.0,0.,12.0,0.,12.0
1979-08-06 03:18:35.290 ,7,1,0.,12.0,0.,12.0,0.,12.0,0.,12.0
1979-08-06 03:18:47.290 ,0,0,0.,12.0,0.,12.0,0.,12.0,0.,12.0
1979-08-06 03:18:59.290 ,0,0,0.,12.0,0.,12.0,0.,12.0,0.,12.0
1979-08-06 03:19:11.290 ,6,1,0.,12.0,0.,12.0,0.,12.0,0.,12.0
1979-08-06 03:19:23.290 ,6,1,0.,12.0,0.,12.0,0.,12.0,0.,12.0
1979-08-06 03:19:35.290 ,6,0,0.,12.0,0.,12.0,0.,12.0,0.,12.0
1979-08-06 03:19:47.290 ,6,0,0.,12.0,0.,12.0,0.,12.0,0.,12.0
1979-08-06 03:19:59.290 ,5,1,0.,12.0,0.,12.0,0.,12.0,0.,12.0
1979-08-06 03:20:11.290 ,5,1,0.,12.0,0.,12.0,0.,12.0,0.,12.0
1979-08-06 03:20:23.290 ,5,0,0.,12.0,0.,12.0,0.,12.0,0.,12.0
1979-08-06 03:20:35.290 ,5,0,0.,12.0,0.,12.0,0.,12.0,0.,12.0
1979-08-06 03:20:47.290 ,4,1,0.,12.0,0.,12.0,0.,12.0,0.,12.0
1979-08-06 03:20:59.290 ,4,1,0.,12.0,0.,12.0,0.,12.0,1.,12.0
1979-08-06 03:21:11.290 ,4,0,,0,,0,,0,,0
1979-08-06 03:21:23.290 ,4,0,0.,12.0,0.,12.0,0.,12.0,0.,12.0
1979-08-06 03:21:35.290 ,3,1,0.,12.0,0.,12.0,0.,12.0,0.,12.0
1979-08-06 03:21:47.290 ,3,1,0.,12.0,0.,12.0,0.,12.0,0.,12.0
1979-08-06 03:21:59.290 ,3,0,0.,12.0,0.,12.0,0.,12.0,0.,12.0
1979-08-06 03:22:11.290 ,3,0,0.,12.0,0.,12.0,0.,12.0,0.,12.0
1979-08-06 03:22:23.290 ,2,1,0.,12.0,0.,12.0,0.,12.0,0.,12.0
1979-08-06 03:22:35.290 ,2,1,0.,12.0,0.,12.0,0.,12.0,0.,12.0
1979-08-06 03:22:47.290 ,2,0,0.,12.0,0.,12.0,0.,12.0,0.,12.0
1979-08-06 03:22:59.290 ,2,0,0.,12.0,0.,12.0,0.,12.0,0.,12.0
1979-08-06 03:23:11.290 ,1,1,0.,12.0,0.,12.0,0.,12.0,0.,12.0
1979-08-06 03:23:23.290 ,1,1,0.,12.0,0.,12.0,0.,12.0,0.,12.0
1979-08-06 03:23:35.290 ,1,0,0.,12.0,0.,12.0,0.,12.0,0.,12.0
1979-08-06 03:23:47.290 ,1,0,0.,12.0,0.,12.0,0.,12.0,0.,12.0
1979-08-06 03:23:59.290 ,0,1,0.,12.0,0.,12.0,0.,12.0,0.,12.0
1979-08-06 03:24:11.290 ,0,1,0.,12.0,0.,12.0,0.,12.0,0.,12.0
1979-08-06 03:24:23.290 ,0,0,0.,12.0,0.,12.0,0.,12.0,0.,12.0
1979-08-06 03:24:35.290 ,0,0,0.,12.0,0.,12.0,0.,12.0,0.,12.0
1979-08-06 03:24:47.290 ,0,1,0.,12.0,0.,12.0,0.,12.0,0.,12.0
1979-08-06 03:24:59.290 ,0,1,0.,12.0,0.,12.0,0.,12.0,0.,12.0
1979-08-06 03:25:11.290 ,0,1,0.,12.0,0.,12.0,0.,12.0,0.,12.0
1979-08-06 03:25:23.290 ,0,1,0.,12.0,0.,12.0,0.,12.0,0.,12.0
1979-08-06 03:25:35.290 ,1,1,0.,12.0,0.,12.0,0.,12.0,0.,12.0
1979-08-06 03:25:47.290 ,1,1,0.,12.0,0.,12.0,0.,12.0,0.,12.0
1979-08-06 03:25:59.290 ,1,0,,0,,0,,0,,0
1979-08-06 03:26:11.290 ,1,0,0.,12.0,0.,12.0,0.,12.0,0.,12.0
1979-08-06 03:26:23.290 ,2,1,0.,12.0,0.,12.0,0.,12.0,0.,12.0
1979-08-06 03:26:35.290 ,2,1,0.,12.0,0.,12.0,0.,12.0,0.,12.0
1979-08-06 03:26:47.290 ,2,0,0.,12.0,0.,12.0,0.,12.0,0.,12.0
1979-08-06 03:26:59.290 ,2,0,0.,12.0,0.,12.0,0.,12.0,0.,12.0
1979-08-06 03:27:11.290 ,3,1,0.,12.0,0.,12.0,0.,12.0,0.,12.0
1979-08-06 03:27:23.290 ,3,1,0.,12.0,0.,12.0,0.,12.0,0.,12.0
1979-08-06 03:27:35.290 ,3,0,0.,12.0,0.,12.0,0.,12.0,0.,12.0
1979-08-06 03:27:47.290 ,3,0,0.,12.0,0.,12.0,0.,12.0,0.,12.0
1979-08-06 03:27:59.290 ,4,1,0.,12.0,0.,12.0,0.,12.0,0.,12.0
1979-08-06 03:28:11.290 ,4,1,0.,12.0,0.,12.0,0.,12.0,0.,12.0
1979-08-06 03:28:23.290 ,4,0,0.,12.0,0.,12.0,0.,12.0,0.,12.0
1979-08-06 03:28:35.290 ,4,0,0.,12.0,0.,12.0,0.,12.0,0.,12.0
1979-08-06 03:28:47.290 ,5,1,0.,12.0,0.,12.0,0.,12.0,0.,12.0
1979-08-06 03:28:59.290 ,5,1,0.,12.0,0.,12.0,0.,12.0,0.,12.0
1979-08-06 03:29:11.290 ,5,0,0.,12.0,0.,12.0,0.,12.0,0.,12.0
1979-08-06 03:29:23.290 ,5,0,0.,12.0,0.,12.0,0.,12.0,0.,12.0
1979-08-06 03:29:35.290 ,6,1,0.,12.0,0.,12.0,0.,12.0,0.,12.0
1979-08-06 03:29:47.290 ,6,1,0.,12.0,0.,12.0,0.,12.0,0.,12.0
1979-08-06 03:29:59.290 ,6,0,0.,12.0,0.,12.0,0.,12.0,0.,12.0
1979-08-06 03:30:11.290 ,6,0,0.,12.0,0.,12.0,0.,12.0,0.,12.0
1979-08-06 03:30:23.290 ,7,0,0.,12.0,0.,12.0,0.,12.0,0.,12.0
1979-08-06 03:30:35.290 ,7,0,0.,12.0,0.,12.0,0.,12.0,0.,12.0
1979-08-06 03:30:47.290 ,7,0,0.,12.0,0.,12.0,0.,12.0,0.,12.0
1979-08-06 03:30:59.290 ,7,0,0.,12.0,0.,12.0,0.,12.0,0.,12.0
1979-08-06 03:31:11.290 ,4,1,0.,12.0,0.,12.0,0.,12.0,0.,12.0
1979-08-06 03:31:23.290 ,4,1,0.,12.0,0.,12.0,0.,12.0,0.,12.0
1979-08-06 03:31:35.290 ,0,1,0.,12.0,0.,12.0,0.,12.0,0.,12.0
1979-08-06 03:31:47.290 ,0,1,0.,12.0,0.,12.0,0.,12.0,0.,12.0
1979-08-06 03:31:59.290 ,3,1,0.,12.0,0.,12.0,0.,12.0,0.,12.0
1979-08-06 03:32:11.290 ,3,1,0.,12.0,0.,12.0,0.,12.0,0.,12.0
1979-08-06 03:32:23.290 ,7,1,0.,12.0,0.,12.0,0.,12.0,0.,12.0
1979-08-06 03:32:35.290 ,7,1,0.,12.0,0.,12.0,0.,12.0,0.,12.0
1979-08-06 03:32:47.290 ,4,1,0.,12.0,0.,12.0,0.,12.0,0.,12.0
1979-08-06 03:32:59.290 ,4,1,0.,12.0,0.,12.0,0.,12.0,0.,12.0
1979-08-06 03:33:11.290 ,0,1,0.,12.0,0.,12.0,0.,12.0,0.,12.0
1979-08-06 03:33:23.290 ,0,1,0.,12.0,0.,12.0,0.,12.0,0.,12.0
1979-08-06 03:33:35.290 ,3,1,0.,12.0,0.,12.0,0.,12.0,0.,12.0
1979-08-06 03:33:47.290 ,3,1,0.,12.0,0.,12.0,0.,12.0,0.,12.0
1979-08-06 03:33:59.290 ,7,1,0.,12.0,0.,12.0,0.,12.0,0.,12.0
1979-08-06 03:34:11.290 ,7,1,0.,12.0,0.,12.0,0.,12.0,0.,12.0
1979-08-06 03:34:23.290 ,4,1,0.,12.0,0.,12.0,0.,12.0,0.,12.0
1979-08-06 03:34:35.290 ,4,1,0.,12.0,0.,12.0,0.,12.0,0.,12.0
1979-08-06 03:34:47.290 ,0,1,0.,12.0,0.,12.0,0.,12.0,0.,12.0
1979-08-06 03:34:59.290 ,0,1,0.,12.0,0.,12.0,0.,12.0,0.,12.0
1979-08-06 03:35:11.290 ,3,1,0.,12.0,0.,12.0,0.,12.0,0.,12.0
1979-08-06 03:35:23.290 ,3,1,0.,12.0,0.,12.0,0.,12.0,0.,12.0
1979-08-06 03:35:35.290 ,7,1,0.,12.0,0.,12.0,0.,12.0,0.,12.0
1979-08-06 03:35:47.290 ,7,1,0.,12.0,0.,12.0,0.,12.0,0.,12.0
1979-08-06 03:35:59.290 ,4,1,0.,12.0,0.,12.0,0.,12.0,0.,12.0
1979-08-06 03:36:11.290 ,4,1,0.,12.0,0.,12.0,0.,12.0,0.,12.0
1979-08-06 03:36:23.290 ,0,1,0.,12.0,0.,12.0,0.,12.0,0.,12.0
1979-08-06 03:36:35.290 ,0,1,0.,12.0,0.,12.0,0.,12.0,0.,12.0
1979-08-06 03:36:47.290 ,3,1,0.,12.0,0.,12.0,0.,12.0,0.,12.0
1979-08-06 03:36:59.290 ,3,1,0.,12.0,0.,12.0,0.,12.0,0.,12.0
1979-08-06 03:37:11.290 ,7,1,0.,12.0,0.,12.0,0.,12.0,0.,12.0
1979-08-06 03:37:23.290 ,7,1,0.,12.0,0.,12.0,0.,12.0,0.,12.0
1979-08-06 03:37:35.290 ,4,1,0.,12.0,0.,12.0,0.,12.0,0.,12.0
1979-08-06 03:37:47.290 ,4,1,0.,12.0,0.,12.0,0.,12.0,0.,12.0
1979-08-06 03:37:59.290 ,0,1,0.,12.0,0.,12.0,0.,12.0,0.,12.0
1979-08-06 03:38:11.290 ,0,1,0.,12.0,0.,12.0,0.,12.0,0.,12.0
1979-08-06 03:38:23.290 ,3,1,0.,12.0,0.,12.0,0.,12.0,0.,12.0
1979-08-06 03:38:35.290 ,3,1,0.,12.0,0.,12.0,0.,12.0,0.,12.0
1979-08-06 03:38:47.290 ,0,0,0.,12.0,0.,12.0,0.,12.0,0.,12.0
1979-08-06 03:38:59.290 ,0,0,0.,12.0,0.,12.0,0.,12.0,0.,12.0
1979-08-06 03:39:11.290 ,4,1,0.,12.0,0.,12.0,0.,12.0,0.,12.0
1979-08-06 03:39:23.290 ,4,1,0.,12.0,0.,12.0,0.,12.0,0.,12.0
1979-08-06 03:39:35.290 ,0,1,0.,12.0,0.,12.0,0.,12.0,0.,12.0
1979-08-06 03:39:47.290 ,0,1,0.,12.0,0.,12.0,0.,12.0,0.,12.0
1979-08-06 03:39:59.290 ,3,1,0.,12.0,0.,12.0,0.,12.0,0.,12.0
1979-08-06 03:40:11.290 ,3,1,0.,12.0,0.,12.0,0.,12.0,0.,12.0
1979-08-06 03:40:23.290 ,7,1,0.,12.0,0.,12.0,0.,12.0,0.,12.0
1979-08-06 03:40:35.290 ,7,1,0.,12.0,0.,12.0,0.,12.0,0.,12.0
1979-08-06 03:40:47.290 ,4,1,0.,12.0,0.,12.0,0.,12.0,0.,12.0
1979-08-06 03:40:59.290 ,4,1,0.,12.0,0.,12.0,0.,12.0,0.,12.0
1979-08-06 03:41:11.290 ,0,1,0.,12.0,0.,12.0,0.,12.0,0.,12.0
1979-08-06 03:41:23.290 ,0,1,0.,12.0,0.,12.0,0.,12.0,0.,12.0
1979-08-06 03:41:35.290 ,0,0,0.,12.0,0.,12.0,0.,12.0,0.,12.0
1979-08-06 03:41:47.290 ,0,0,0.,12.0,0.,12.0,0.,12.0,0.,12.0
1979-08-06 03:41:59.290 ,0,0,0.,12.0,0.,12.0,0.,12.0,0.,12.0
1979-08-06 03:42:11.290 ,0,0,0.,12.0,0.,12.0,0.,12.0,0.,12.0
1979-08-06 03:42:23.290 ,5,1,0.,12.0,0.,12.0,0.,12.0,0.,12.0
1979-08-06 03:42:35.290 ,5,1,0.,12.0,0.,12.0,0.,12.0,0.,12.0
1979-08-06 03:42:47.290 ,5,0,0.,12.0,0.,12.0,0.,12.0,0.,12.0
1979-08-06 03:42:59.290 ,5,0,0.,12.0,0.,12.0,0.,12.0,0.,12.0
1979-08-06 03:43:11.290 ,4,1,0.,12.0,0.,12.0,0.,12.0,0.,12.0
1979-08-06 03:43:23.290 ,4,1,0.,12.0,0.,12.0,0.,12.0,0.,12.0
1979-08-06 03:43:35.290 ,4,0,0.,12.0,0.,12.0,0.,12.0,0.,12.0
1979-08-06 03:43:47.290 ,4,0,0.,12.0,0.,12.0,0.,12.0,0.,12.0
1979-08-06 03:43:59.290 ,3,1,0.,12.0,0.,12.0,0.,12.0,0.,12.0
1979-08-06 03:44:11.290 ,3,1,0.,12.0,0.,12.0,0.,12.0,0.,12.0
1979-08-06 03:44:23.290 ,3,0,0.,12.0,0.,12.0,0.,12.0,0.,12.0
1979-08-06 03:44:35.290 ,3,0,0.,12.0,0.,12.0,0.,12.0,0.,12.0
1979-08-06 03:44:47.290 ,2,1,0.,12.0,0.,12.0,0.,12.0,0.,12.0
1979-08-06 03:44:59.290 ,2,1,0.,12.0,0.,12.0,0.,12.0,0.,12.0
1979-08-06 03:45:11.290 ,2,0,0.,12.0,0.,12.0,0.,12.0,0.,12.0
1979-08-06 03:45:23.290 ,2,0,0.,12.0,0.,12.0,0.,12.0,0.,12.0
1979-08-06 03:45:35.290 ,1,1,0.,12.0,0.,12.0,0.,12.0,0.,12.0
1979-08-06 03:45:47.290 ,1,1,0.,12.0,0.,12.0,0.,12.0,0.,12.0
1979-08-06 03:45:59.290 ,1,0,,0,,0,,0,,0
1979-08-06 03:46:11.290 ,1,0,0.,12.0,0.,12.0,0.,12.0,0.,12.0
1979-08-06 03:46:23.290 ,0,1,0.,12.0,0.,12.0,0.,12.0,0.,12.0
1979-08-06 03:46:35.290 ,0,1,0.,12.0,0.,12.0,0.,12.0,0.,12.0
1979-08-06 03:46:47.290 ,0,0,0.,12.0,0.,12.0,0.,12.0,0.,12.0
1979-08-06 03:46:59.290 ,0,0,0.,12.0,0.,12.0,0.,12.0,0.,12.0
1979-08-06 03:47:11.290 ,0,1,0.,12.0,0.,12.0,0.,12.0,0.,12.0
1979-08-06 03:47:23.290 ,0,1,0.,12.0,0.,12.0,0.,12.0,0.,12.0
1979-08-06 03:47:35.290 ,0,0,0.,12.0,0.,12.0,0.,12.0,0.,12.0
1979-08-06 03:47:47.290 ,0,0,0.,12.0,0.,12.0,0.,12.0,0.,12.0
1979-08-06 03:47:59.290 ,1,1,0.,12.0,0.,12.0,0.,12.0,0.,12.0
1979-08-06 03:48:11.290 ,1,1,0.,12.0,0.,12.0,0.,12.0,0.,12.0
1979-08-06 03:48:23.290 ,1,0,0.,12.0,0.,12.0,0.,12.0,0.,12.0
1979-08-06 03:48:35.290 ,1,0,0.,12.0,0.,12.0,0.,12.0,0.,12.0
1979-08-06 03:48:47.290 ,2,1,0.,12.0,0.,12.0,0.,12.0,0.,12.0
1979-08-06 03:48:59.290 ,2,1,0.,12.0,0.,12.0,0.,12.0,0.,12.0
1979-08-06 03:49:11.290 ,2,0,0.,12.0,0.,12.0,0.,12.0,0.,12.0
1979-08-06 03:49:23.290 ,2,0,0.,12.0,0.,12.0,0.,12.0,0.,12.0
1979-08-06 03:49:35.290 ,3,1,0.,12.0,0.,12.0,0.,12.0,0.,12.0
1979-08-06 03:49:47.290 ,3,1,0.,12.0,0.,12.0,0.,12.0,0.,12.0
1979-08-06 03:49:59.290 ,3,0,0.,12.0,0.,12.0,0.,12.0,0.,12.0
1979-08-06 03:50:11.290 ,3,0,0.,12.0,0.,12.0,0.,12.0,0.,12.0
1979-08-06 03:50:23.290 ,4,1,0.,12.0,0.,12.0,0.,12.0,0.,12.0
1979-08-06 03:50:35.290 ,4,1,0.,12.0,0.,12.0,0.,12.0,0.,12.0
1979-08-06 03:50:47.290 ,4,0,0.,12.0,0.,12.0,0.,12.0,0.,12.0
1979-08-06 03:50:59.290 ,4,0,0.,12.0,0.,12.0,0.,12.0,0.,12.0
1979-08-06 03:51:11.290 ,5,1,0.,12.0,0.,12.0,0.,12.0,0.,12.0
1979-08-06 03:51:23.290 ,5,1,0.,12.0,0.,12.0,0.,12.0,0.,12.0
1979-08-06 03:51:35.290 ,5,0,0.,12.0,0.,12.0,0.,12.0,0.,12.0
1979-08-06 03:51:47.290 ,5,0,0.,12.0,0.,12.0,0.,12.0,0.,12.0
1979-08-06 03:51:59.290 ,6,1,0.,12.0,0.,12.0,0.,12.0,0.,12.0
1979-08-06 03:52:11.290 ,6,1,0.,12.0,0.,12.0,0.,12.0,0.,12.0
1979-08-06 03:52:23.290 ,6,0,0.,12.0,0.,12.0,0.,12.0,0.,12.0
1979-08-06 03:52:35.290 ,6,0,0.,12.0,0.,12.0,0.,12.0,0.,12.0
1979-08-06 03:52:47.290 ,0,0,0.,12.0,0.,12.0,0.,12.0,0.,12.0
1979-08-06 03:52:59.290 ,0,0,0.,12.0,0.,12.0,0.,12.0,0.,12.0
1979-08-06 03:53:11.290 ,0,0,0.,12.0,0.,12.0,0.,12.0,0.,12.0
1979-08-06 03:53:23.290 ,0,0,0.,12.0,0.,12.0,0.,12.0,0.,12.0
1979-08-06 03:53:35.290 ,7,1,0.,12.0,0.,12.0,0.,12.0,0.,12.0
1979-08-06 03:53:47.290 ,7,1,0.,12.0,0.,12.0,0.,12.0,0.,12.0
1979-08-06 03:53:59.290 ,7,0,0.,12.0,0.,12.0,0.,12.0,0.,12.0
1979-08-06 03:54:11.290 ,7,0,0.,12.0,0.,12.0,0.,12.0,0.,12.0
1979-08-06 03:54:23.290 ,6,1,0.,12.0,0.,12.0,0.,12.0,0.,12.0
1979-08-06 03:54:35.290 ,6,1,0.,12.0,0.,12.0,0.,12.0,0.,12.0
1979-08-06 03:54:47.290 ,6,0,0.,12.0,0.,12.0,0.,12.0,0.,12.0
1979-08-06 03:54:59.290 ,6,0,0.,12.0,0.,12.0,0.,12.0,0.,12.0
1979-08-06 03:55:11.290 ,6,0,0.,12.0,0.,12.0,0.,12.0,0.,12.0
1979-08-06 03:55:23.290 ,6,0,,0,,0,,0,,0
1979-08-06 03:55:35.290 ,5,0,0.,12.0,0.,12.0,0.,12.0,0.,12.0
1979-08-06 03:55:47.290 ,5,0,0.,12.0,0.,12.0,0.,12.0,0.,12.0
1979-08-06 03:55:59.290 ,4,1,0.,12.0,0.,12.0,0.,12.0,0.,12.0
1979-08-06 03:56:11.290 ,4,1,0.,12.0,0.,12.0,0.,12.0,0.,12.0
1979-08-06 03:56:23.290 ,4,0,0.,12.0,0.,12.0,0.,12.0,0.,12.0
1979-08-06 03:56:35.290 ,4,0,0.,12.0,0.,12.0,0.,12.0,0.,12.0
1979-08-06 03:56:47.290 ,3,1,0.,12.0,0.,12.0,0.,12.0,0.,12.0
1979-08-06 03:56:59.290 ,3,1,0.,12.0,0.,12.0,0.,12.0,0.,12.0
1979-08-06 03:57:11.290 ,3,0,0.,12.0,0.,12.0,0.,12.0,0.,12.0
1979-08-06 03:57:23.290 ,3,0,0.,12.0,0.,12.0,0.,12.0,0.,12.0
1979-08-06 03:57:35.290 ,2,1,0.,12.0,0.,12.0,0.,12.0,0.,12.0
1979-08-06 03:57:47.290 ,2,1,0.,12.0,0.,12.0,0.,12.0,0.,12.0
1979-08-06 03:57:59.290 ,2,0,0.,12.0,0.,12.0,0.,12.0,0.,12.0
1979-08-06 03:58:11.290 ,2,0,0.,12.0,0.,12.0,0.,12.0,0.,12.0
1979-08-06 03:58:23.290 ,1,1,0.,12.0,0.,12.0,0.,12.0,0.,12.0
1979-08-06 03:58:35.290 ,1,1,0.,12.0,0.,12.0,0.,12.0,0.,12.0
1979-08-06 03:58:47.290 ,1,0,0.,12.0,0.,12.0,0.,12.0,0.,12.0
1979-08-06 03:58:59.290 ,1,0,0.,12.0,0.,12.0,0.,12.0,0.,12.0
1979-08-06 03:59:11.290 ,0,1,0.,12.0,0.,12.0,0.,12.0,0.,12.0
1979-08-06 03:59:23.290 ,0,1,0.,12.0,0.,12.0,0.,12.0,0.,12.0
1979-08-06 03:59:35.290 ,0,0,0.,12.0,0.,12.0,0.,12.0,0.,12.0
1979-08-06 03:59:47.290 ,0,0,0.,12.0,0.,12.0,0.,12.0,0.,12.0
1979-08-06 03:59:59.290 ,0,1,,0,,0,,0,,0
1979-08-06 04:00:11.290 ,0,1,0.,12.0,0.,12.0,0.,12.0,0.,12.0
1979-08-06 04:00:23.290 ,0,0,0.,12.0,0.,12.0,0.,12.0,0.,12.0
1979-08-06 04:00:35.290 ,0,0,0.,12.0,0.,12.0,0.,12.0,0.,12.0
1979-08-06 04:00:47.290 ,1,1,0.,12.0,0.,12.0,0.,12.0,0.,12.0
1979-08-06 04:00:59.290 ,1,1,0.,12.0,0.,12.0,0.,12.0,0.,12.0
1979-08-06 04:01:11.290 ,1,0,0.,12.0,0.,12.0,0.,12.0,0.,12.0
1979-08-06 04:01:23.290 ,1,0,0.,12.0,0.,12.0,0.,12.0,0.,12.0
1979-08-06 04:01:35.290 ,2,1,0.,12.0,0.,12.0,0.,12.0,0.,12.0
1979-08-06 04:01:47.290 ,2,1,0.,12.0,0.,12.0,0.,12.0,1.,12.0
1979-08-06 04:01:59.290 ,2,0,0.,12.0,0.,12.0,0.,12.0,0.,12.0
1979-08-06 04:02:11.290 ,2,0,0.,12.0,0.,12.0,0.,12.0,0.,12.0
1979-08-06 04:02:23.290 ,3,1,0.,12.0,0.,12.0,0.,12.0,0.,12.0
1979-08-06 04:02:35.290 ,3,1,0.,12.0,0.,12.0,0.,12.0,0.,12.0
1979-08-06 04:02:47.290 ,3,0,0.,12.0,0.,12.0,0.,12.0,0.,12.0
1979-08-06 04:02:59.290 ,3,0,0.,12.0,0.,12.0,0.,12.0,0.,12.0
1979-08-06 04:03:11.290 ,4,1,0.,12.0,0.,12.0,0.,12.0,0.,12.0
1979-08-06 04:03:23.290 ,4,1,0.,12.0,0.,12.0,0.,12.0,0.,12.0
1979-08-06 04:03:35.290 ,4,0,0.,12.0,0.,12.0,0.,12.0,0.,12.0
1979-08-06 04:03:47.290 ,4,0,0.,12.0,0.,12.0,0.,12.0,0.,12.0
1979-08-06 04:03:59.290 ,5,1,0.,12.0,0.,12.0,0.,12.0,0.,12.0
1979-08-06 04:04:11.290 ,5,1,0.,12.0,0.,12.0,0.,12.0,0.,12.0
1979-08-06 04:04:23.290 ,5,0,0.,12.0,0.,12.0,0.,12.0,0.,12.0
1979-08-06 04:04:35.290 ,5,0,0.,12.0,0.,12.0,0.,12.0,0.,12.0
1979-08-06 04:04:47.290 ,6,1,0.,12.0,0.,12.0,0.,12.0,0.,12.0
1979-08-06 04:04:59.290 ,6,1,0.,12.0,0.,12.0,0.,12.0,0.,12.0
1979-08-06 04:05:11.290 ,6,0,0.,12.0,0.,12.0,0.,12.0,0.,12.0
1979-08-06 04:05:23.290 ,6,0,0.,12.0,0.,12.0,0.,12.0,0.,12.0
1979-08-06 04:05:35.290 ,7,1,0.,12.0,0.,12.0,0.,12.0,0.,12.0
1979-08-06 04:05:47.290 ,7,1,0.,12.0,0.,12.0,0.,12.0,0.,12.0
1979-08-06 04:05:59.290 ,7,0,0.,12.0,0.,12.0,0.,12.0,0.,12.0
1979-08-06 04:06:11.290 ,7,0,0.,12.0,0.,12.0,0.,12.0,0.,12.0
1979-08-06 04:06:23.290 ,7,1,0.,12.0,0.,12.0,0.,12.0,0.,12.0
1979-08-06 04:06:35.290 ,7,1,0.,12.0,0.,12.0,0.,12.0,0.,12.0
1979-08-06 04:06:47.290 ,7,0,0.,12.0,0.,12.0,0.,12.0,0.,12.0
1979-08-06 04:06:59.290 ,7,0,0.,12.0,0.,12.0,0.,12.0,0.,12.0
1979-08-06 04:07:11.290 ,6,1,0.,12.0,0.,12.0,0.,12.0,0.,12.0
1979-08-06 04:07:23.290 ,6,1,0.,12.0,0.,12.0,0.,12.0,0.,12.0
1979-08-06 04:07:35.290 ,6,0,0.,12.0,0.,12.0,0.,12.0,0.,12.0
1979-08-06 04:07:47.290 ,6,0,0.,12.0,0.,12.0,0.,12.0,0.,12.0
1979-08-06 04:07:59.290 ,5,1,0.,12.0,0.,12.0,0.,12.0,0.,12.0
1979-08-06 04:08:11.290 ,5,1,0.,12.0,0.,12.0,0.,12.0,0.,12.0
1979-08-06 04:08:23.290 ,5,0,0.,12.0,0.,12.0,0.,12.0,0.,12.0
1979-08-06 04:08:35.290 ,5,0,0.,12.0,0.,12.0,0.,12.0,0.,12.0
1979-08-06 04:08:47.290 ,4,1,0.,12.0,0.,12.0,0.,12.0,0.,12.0
1979-08-06 04:08:59.290 ,4,1,0.,12.0,0.,12.0,0.,12.0,0.,12.0
1979-08-06 04:09:11.290 ,4,0,0.,12.0,0.,12.0,0.,12.0,0.,12.0
1979-08-06 04:09:23.290 ,4,0,0.,12.0,0.,12.0,0.,12.0,0.,12.0
1979-08-06 04:09:35.290 ,3,1,0.,12.0,0.,12.0,0.,12.0,0.,12.0
1979-08-06 04:09:47.290 ,3,1,0.,12.0,0.,12.0,0.,12.0,0.,12.0
1979-08-06 04:09:59.290 ,3,0,0.,12.0,0.,12.0,0.,12.0,0.,12.0
1979-08-06 04:10:11.290 ,3,0,0.,12.0,0.,12.0,0.,12.0,0.,12.0
1979-08-06 04:10:23.290 ,2,1,0.,12.0,0.,12.0,0.,12.0,0.,12.0
1979-08-06 04:10:35.290 ,2,1,0.,12.0,0.,12.0,0.,12.0,0.,12.0
1979-08-06 04:10:47.290 ,2,0,0.,12.0,0.,12.0,0.,12.0,0.,12.0
1979-08-06 04:10:59.290 ,2,0,0.,12.0,0.,12.0,0.,12.0,0.,12.0
1979-08-06 04:11:11.290 ,1,1,0.,12.0,0.,12.0,0.,12.0,0.,12.0
1979-08-06 04:11:23.290 ,1,1,0.,12.0,0.,12.0,0.,12.0,0.,12.0
1979-08-06 04:11:35.290 ,1,0,0.,12.0,0.,12.0,0.,12.0,0.,12.0
1979-08-06 04:11:47.290 ,1,0,0.,12.0,0.,12.0,0.,12.0,0.,12.0
1979-08-06 04:11:59.290 ,0,1,0.,12.0,0.,12.0,0.,12.0,0.,12.0
1979-08-06 04:12:11.290 ,0,1,0.,12.0,0.,12.0,0.,12.0,0.,12.0
1979-08-06 04:12:23.290 ,0,0,0.,12.0,0.,12.0,0.,12.0,0.,12.0
1979-08-06 04:12:35.290 ,0,0,0.,12.0,0.,12.0,0.,12.0,0.,12.0
1979-08-06 04:12:47.290 ,0,1,0.,12.0,0.,12.0,0.,12.0,0.,12.0
1979-08-06 04:12:59.290 ,0,1,0.,12.0,0.,12.0,0.,12.0,0.,12.0
1979-08-06 04:13:11.290 ,0,0,0.,12.0,0.,12.0,0.,12.0,0.,12.0
1979-08-06 04:13:23.290 ,0,0,0.,12.0,0.,12.0,0.,12.0,0.,12.0
1979-08-06 04:13:35.290 ,1,1,0.,12.0,0.,12.0,0.,12.0,0.,12.0
1979-08-06 04:13:47.290 ,1,1,0.,12.0,0.,12.0,0.,12.0,0.,12.0
1979-08-06 04:13:59.290 ,1,0,0.,12.0,0.,12.0,0.,12.0,0.,12.0
1979-08-06 04:14:11.290 ,1,0,0.,12.0,0.,12.0,0.,12.0,0.,12.0
1979-08-06 04:14:23.290 ,2,1,0.,12.0,0.,12.0,0.,12.0,0.,12.0
1979-08-06 04:14:35.290 ,2,1,0.,12.0,0.,12.0,0.,12.0,0.,12.0
1979-08-06 04:14:47.290 ,2,0,0.,12.0,0.,12.0,0.,12.0,0.,12.0
1979-08-06 04:14:59.290 ,2,0,0.,12.0,0.,12.0,0.,12.0,0.,12.0
1979-08-06 04:15:11.290 ,3,1,0.,12.0,0.,12.0,0.,12.0,0.,12.0
1979-08-06 04:15:23.290 ,3,1,0.,12.0,0.,12.0,0.,12.0,0.,12.0
1979-08-06 04:15:35.290 ,0,0,0.,12.0,0.,12.0,0.,12.0,0.,12.0
1979-08-06 04:15:47.290 ,0,0,0.,12.0,0.,12.0,0.,12.0,0.,12.0
1979-08-06 04:15:59.290 ,4,1,0.,12.0,0.,12.0,0.,12.0,0.,12.0
1979-08-06 04:16:11.290 ,4,1,0.,12.0,0.,12.0,0.,12.0,0.,12.0
1979-08-06 04:16:23.290 ,4,0,0.,12.0,0.,12.0,0.,12.0,0.,12.0
1979-08-06 04:16:35.290 ,4,0,0.,12.0,0.,12.0,0.,12.0,0.,12.0
1979-08-06 04:16:47.290 ,5,1,0.,12.0,0.,12.0,0.,12.0,0.,12.0
1979-08-06 04:16:59.290 ,5,1,0.,12.0,0.,12.0,0.,12.0,0.,12.0
1979-08-06 04:17:11.290 ,5,0,0.,12.0,0.,12.0,0.,12.0,0.,12.0
1979-08-06 04:17:23.290 ,5,0,0.,12.0,0.,12.0,0.,12.0,0.,12.0
1979-08-06 04:17:35.290 ,6,1,0.,12.0,0.,12.0,0.,12.0,0.,12.0